Location: Bois de la Silve
(44.4667°N, 6.7833°E)
Time: 23:15:14
(UTC+00:00)

USA 238 DEB - Pass Details

Date: 28 October 2020
Orbit: 1001 x 1211 km, 63.5° (Epoch: 22 November)

Event Time Altitude Azimuth Distance (km) Brightness Sun altitude
Exits shadow 04:28:31 22° 301° (WNW) 2,097 4.7 -17.8°
Maximum altitude 04:30:47 27° 330° (NNW) 1,930 4.8 -17.4°
Drops below altitude 10° 04:36:34 10° 27° (NNE) 2,960 6.3 -16.4°
Sets 04:39:49 0° 39° (NE) 3,957 7.2 -15.8°
